[[{"header":{"parameterUnit":"m.s-1","parameterCategory":1,"la1":30.2991,"la2":30.254,"lo1":-89.0895,"lo2":-89.0444,"dy":0.0017,"dx":0.0017,"nx":28,"ny":28,"refTime":"2023-10-09T09:00:00:Z","depth":0,"parameterNumber":2,"parameterNumberName":"U-component_of_WINDS"},"data":[0,0,0,0,0,0,0,0,0,0,0,0,0,0,0,0,0,0,0,0,0,0,0,0,0,0,0,0,0,0,0,0,0,0,0,0,0,0,0,0,0,0,0,0,0,0,0,0,0,0,0,0,0,0,0,0,0,0,0.8572,0.8574,0,0.8691,0.8692,0.8694,0.8735,0.8734,0.8734,0.8734,0.8851,0.8855,0.8858,0,0,0,0,0,0,0,0,0,0,0,0,0,0.8377,0.8381,0.8572,0.8574,0.8575,0.8691,0.8692,0.8694,0.8735,0.8734,0.8734,0.8733,0.885,0.8854,0.8859,0,0,0,0,0,0,0,0,0,0,0,0,0,0.8475,0.8382,0.8572,0.861,0.8614,0.869,0.8692,0.8694,0.8735,0.8734,0.8734,0.8733,0.8849,0.8854,0.8859,0.8905,0,0,0.8875,0.8878,0,0,0,0,0,0,0,0,0.847,0.8483,0.8603,0.8607,0.8613,0.8698,0.8667,0.8765,0.8735,0.8689,0.8734,0.8733,0.88,0.881,0.8833,0.8911,0.8916,0.8876,0.8879,0.8881,0.8883,0,0,0,0,0,0,0,0.8463,0.8478,0.8619,0.8604,0.861,0.8619,0.8633,0.8686,0.8747,0.8693,0.8696,0.871,0.8803,0.8828,0.8836,0.8918,0.8876,0.888,0.8884,0.8886,0.9038,0.9039,0,0,0,0,0,0,0.845,0.8472,0.8615,0.8623,0.8538,0.8623,0.8638,0.8671,0.8746,0.8757,0.871,0.8712,0.8819,0.883,0.8841,0.8899,0.8881,0.8886,0.8889,0.9037,0.9038,0.9039,0,0,0,0,0,0,0.8446,0.8463,0.8611,0.8548,0.8568,0.8628,0.8664,0.8674,0.8699,0.876,0.877,0.8725,0.8819,0.8833,0.8889,0.8904,0.8889,0.8894,0.9036,0.9038,0.9039,0.9017,0,0,0,0,0,0,0.844,0.8461,0.848,0.8548,0.8571,0.8658,0.8665,0.8676,0.8708,0.8711,0.8776,0.8786,0.882,0.8881,0.8894,0.8911,0.8898,0.9035,0.9037,0.9038,0.9016,0.9017,0.9017,0,0,0,0,0,0.8433,0.8468,0.8481,0.8498,0.8596,0.8659,0.8672,0.871,0.8709,0.8728,0.8767,0.8784,0.89,0.8886,0.8902,0.892,0.9034,0.9036,0.9038,0.9016,0.9017,0.9017,0,0,0,0,0,0,0.8399,0.8478,0.8493,0.8551,0.8598,0.8666,0.8691,0.871,0.8757,0.8757,0.8802,0.8816,0.8869,0.89,0.8883,0.8968,0.8968,0.8973,0.8946,0.8947,0.8948,0.8939,0.8902,0,0,0,0,0,0.8398,0.8444,0.851,0.8555,0.8578,0.863,0.8659,0.8685,0.8735,0.8754,0.8798,0.8844,0.8891,0.8921,0.8968,0.9021,0.9035,0.9041,0.9042,0.9042,0.9046,0.9076,0.9079,0.9045,0.9045,0.9045,0,0,0.8397,0.8446,0.8472,0.855,0.8589,0.8634,0.8647,0.8694,0.8727,0.8761,0.8817,0.885,0.8905,0.896,0.8986,0.8987,0.9058,0.9045,0.9044,0.9048,0.9078,0.9081,0.9084,0.9047,0.9047,0.9046,0,0,0.8418,0.846,0.8502,0.8542,0.8602,0.8636,0.8646,0.8711,0.8735,0.8792,0.8818,0.8858,0.8938,0.8976,0.9005,0.9041,0.9058,0.9054,0.9057,0.9086,0.9089,0.9091,0.9103,0.9107,0.9058,0.9058,0.9058,0,0.8409,0.8479,0.8521,0.8567,0.86,0.8634,0.8676,0.8712,0.8783,0.8805,0.8806,0.8907,0.8946,0.901,0.9019,0.9042,0.9054,0.9047,0.9085,0.9088,0.9091,0.9103,0.9107,0.9057,0.9057,0.9057,0.9057,0,0.8464,0.8512,0.8539,0.8608,0.8644,0.8688,0.8735,0.8766,0.8789,0.8823,0.888,0.8929,0.8985,0.9002,0.9025,0.9069,0.9068,0.9077,0.9077,0.9093,0.9104,0.9109,0.9056,0.9056,0.9056,0.9057,0,0,0.8466,0.8559,0.8568,0.8599,0.8668,0.8705,0.875,0.8807,0.8832,0.888,0.8918,0.8985,0.8994,0.9027,0.9054,0.9079,0.9103,0.9085,0.9086,0.9085,0.9154,0.9147,0.9151,0.9115,0.9116,0.9117,0.9149,0,0.8495,0.8578,0.8617,0.8683,0.8727,0.876,0.8799,0.8844,0.8877,0.8919,0.8955,0.9001,0.9009,0.9029,0.9056,0.9094,0.9117,0.9093,0.9149,0.9151,0.9134,0.9158,0.915,0.9179,0.9154,0.9155,0.9156,0,0.854,0.8589,0.8659,0.8723,0.8743,0.8777,0.8832,0.8872,0.8924,0.8946,0.8983,0.9009,0.9056,0.9054,0.9119,0.9101,0.9127,0.9149,0.9151,0.9157,0.9154,0.9164,0.9189,0.9192,0.9163,0.9163,0.9162,0,0.8533,0.8617,0.867,0.8696,0.8772,0.8795,0.8827,0.8879,0.891,0.8958,0.8978,0.903,0.9058,0.9098,0.9136,0.9131,0.9197,0.9198,0.9216,0.9215,0.9227,0.9226,0.9256,0.9245,0.9245,0.9245,0.9245,0,0.8562,0.8603,0.8668,0.87,0.8747,0.8791,0.8836,0.887,0.8916,0.8954,0.8986,0.9021,0.9071,0.9112,0.9142,0.9191,0.9203,0.9222,0.9229,0.9219,0.9216,0.9235,0.9234,0.9246,0.9246,0.9245,0.9245,0,0.8562,0.8607,0.8667,0.8734,0.8751,0.8783,0.8839,0.8871,0.8906,0.8954,0.8968,0.9022,0.9072,0.9115,0.918,0.9201,0.925,0.926,0.9233,0.9237,0.9252,0.9249,0.9295,0.9302,0.9286,0.9286,0.9287,0,0.8576,0.8609,0.868,0.8709,0.8741,0.8787,0.8819,0.8864,0.8896,0.8958,0.8982,0.9035,0.9079,0.9157,0.9201,0.9251,0.9261,0.9274,0.9269,0.9257,0.9261,0.9258,0.9261,0.9274,0.9273,0.9273,0.9273,0,0.8597,0.8618,0.8665,0.8719,0.8758,0.8803,0.8848,0.8869,0.8922,0.8957,0.9009,0.9043,0.9111,0.9162,0.9217,0.9249,0.9269,0.9275,0.9281,0.927,0.9253,0.9262,0.9233,0.9273,0.9273,0.9273,0.9273,0.9273,0.8605,0.8635,0.869,0.8741,0.878,0.8822,0.8855,0.8894,0.8939,0.8998,0.9021,0.9074,0.9125,0.9201,0.9233,0.9274,0.9277,0.9287,0.9289,0.929,0.9288,0.9247,0.9284,0.9284,0.9284,0.9284,0.9284,0,0.8627,0.8664,0.871,0.8773,0.8813,0.8831,0.8882,0.8913,0.896,0.9006,0.9049,0.9109,0.9159,0.9207,0.9259,0.9283,0.9293,0.9295,0.9293,0.93,0.9283,0.9272,0.9285,0.9285,0.9285,0.9285,0.9285,0.9285,0.8643,0.8695,0.8722,0.8794,0.8831,0.8884,0.8911,0.8949,0.8987,0.9052,0.9094,0.9126,0.9173,0.9228,0.9275,0.9287,0.9305,0.9303,0.9318,0.9302,0.9301,0.93,0.929,0.9307,0.9307,0.9332,0.9332,0.9332]},{"header":{"parameterUnit":"m.s-1","parameterCategory":1,"la1":30.2991,"la2":30.254,"lo1":-89.0895,"lo2":-89.0444,"dy":0.0017,"dx":0.0017,"nx":28,"ny":28,"refTime":"2023-10-09T09:00:00:Z","depth":0,"parameterNumber":3,"parameterNumberName":"V-component_of_WINDS"},"data":[0,0,0,0,0,0,0,0,0,0,0,0,0,0,0,0,0,0,0,0,0,0,0,0,0,0,0,0,0,0,0,0,0,0,0,0,0,0,0,0,0,0,0,0,0,0,0,0,0,0,0,0,0,0,0,0,0,0,3.2504,3.2503,0,3.2496,3.2496,3.2495,3.2454,3.2453,3.2452,3.2451,3.2443,3.2444,3.2444,0,0,0,0,0,0,0,0,0,0,0,0,0,3.2483,3.2483,3.2504,3.2503,3.2503,3.2496,3.2496,3.2495,3.2454,3.2453,3.2451,3.245,3.2443,3.2444,3.2445,0,0,0,0,0,0,0,0,0,0,0,0,0,3.2485,3.2483,3.2504,3.2482,3.248,3.2496,3.2496,3.2495,3.2454,3.2453,3.2451,3.245,3.2443,3.2444,3.2445,3.2481,0,0,3.2448,3.2448,0,0,0,0,0,0,0,0,3.2485,3.2486,3.2485,3.2483,3.2481,3.2474,3.2485,3.2491,3.2455,3.2464,3.2451,3.2449,3.2455,3.2455,3.2456,3.2481,3.2481,3.2448,3.2449,3.2449,3.245,0,0,0,0,0,0,0,3.2485,3.2486,3.25,3.2485,3.2483,3.2472,3.2471,3.2486,3.2468,3.2463,3.246,3.2459,3.2453,3.2456,3.2456,3.248,3.2448,3.2449,3.245,3.245,3.2533,3.2535,0,0,0,0,0,0,3.2488,3.2486,3.2501,3.25,3.2479,3.2474,3.2472,3.2478,3.2467,3.2464,3.2461,3.2458,3.2454,3.2455,3.2456,3.2496,3.2449,3.245,3.2451,3.2532,3.2534,3.2535,0,0,0,0,0,0,3.2487,3.2489,3.2501,3.2492,3.2493,3.2476,3.2482,3.2478,3.2481,3.2466,3.2462,3.2466,3.2453,3.2454,3.2475,3.2495,3.2451,3.2452,3.253,3.2532,3.2534,3.2579,0,0,0,0,0,0,3.2487,3.2489,3.2503,3.2493,3.2494,3.2521,3.2484,3.2479,3.2483,3.2478,3.247,3.2467,3.2452,3.2473,3.2476,3.2496,3.2453,3.2528,3.2531,3.2534,3.2576,3.2583,3.2589,0,0,0,0,0,3.2486,3.2516,3.2504,3.2506,3.251,3.2522,3.2522,3.2504,3.2484,3.2498,3.2488,3.2468,3.2493,3.2476,3.2478,3.2499,3.2526,3.253,3.2533,3.2573,3.2581,3.2588,0,0,0,0,0,0,3.253,3.2515,3.2501,3.2529,3.2527,3.2515,3.2531,3.2514,3.2517,3.2513,3.2491,3.2489,3.2513,3.2509,3.2489,3.2533,3.2506,3.251,3.2535,3.2543,3.255,3.2549,3.2453,0,0,0,0,0,3.2543,3.2553,3.254,3.2565,3.2565,3.2549,3.2553,3.2539,3.2536,3.2535,3.2527,3.2525,3.2533,3.2538,3.2544,3.2575,3.2572,3.2591,3.2597,3.2603,3.2606,3.2621,3.2629,3.2547,3.2547,3.2547,0,0,3.2569,3.2562,3.257,3.2574,3.2571,3.2582,3.2548,3.2562,3.2569,3.2537,3.2556,3.255,3.2546,3.2572,3.2583,3.2569,3.2628,3.2607,3.2612,3.2612,3.2625,3.2633,3.264,3.2549,3.2549,3.2548,0,0,3.2623,3.262,3.264,3.2637,3.2633,3.2622,3.2627,3.2617,3.2612,3.263,3.2606,3.2615,3.2629,3.2627,3.2628,3.2681,3.2661,3.2684,3.2717,3.2732,3.2738,3.2744,3.2761,3.2767,3.2687,3.2688,3.2688,0,3.2657,3.2672,3.2653,3.2667,3.2669,3.264,3.266,3.2659,3.2657,3.2659,3.2644,3.2659,3.2655,3.2679,3.2692,3.2694,3.2699,3.2684,3.2739,3.2744,3.2749,3.2765,3.2772,3.269,3.269,3.269,3.2689,0,3.2713,3.2724,3.2741,3.2739,3.2743,3.2761,3.2743,3.275,3.2736,3.2726,3.2745,3.2739,3.2742,3.2748,3.2734,3.277,3.2761,3.2743,3.2714,3.276,3.2774,3.2781,3.2694,3.2693,3.2692,3.2691,0,0,3.2793,3.278,3.2786,3.2784,3.2777,3.2786,3.2802,3.2805,3.281,3.2811,3.2823,3.2835,3.2817,3.2818,3.2805,3.2818,3.2858,3.2798,3.2797,3.2808,3.2895,3.2908,3.2915,3.2846,3.2847,3.2848,3.2895,0,3.2843,3.2868,3.2851,3.288,3.2889,3.2863,3.2876,3.2874,3.2865,3.2872,3.2863,3.2871,3.2848,3.2848,3.286,3.2851,3.2875,3.2848,3.2856,3.2857,3.2856,3.2923,3.2937,3.2981,3.2901,3.2902,3.2903,0,3.2904,3.2906,3.2935,3.2925,3.2929,3.2941,3.2942,3.295,3.2946,3.2939,3.294,3.2923,3.2937,3.2911,3.2931,3.2912,3.2915,3.2911,3.2912,3.2911,3.2881,3.2922,3.2995,3.3001,3.2912,3.2911,3.291,0,3.2957,3.2967,3.2985,3.2985,3.2975,3.2984,3.298,3.2975,3.2978,3.2979,3.2981,3.2984,3.2986,3.2989,3.2973,3.2956,3.2994,3.2967,3.2988,3.2988,3.2995,3.2995,3.3068,3.3001,3.3,3.3,3.3,0,3.3013,3.3032,3.3009,3.302,3.304,3.302,3.3041,3.3034,3.303,3.3039,3.3017,3.3026,3.3005,3.3012,3.3,3.3017,3.3019,3.3013,3.3009,3.3014,3.3014,3.3014,3.3009,3.3002,3.3002,3.3001,3.3001,0,3.3075,3.3061,3.3079,3.3068,3.3065,3.308,3.307,3.308,3.307,3.3082,3.3084,3.3069,3.3076,3.306,3.3066,3.3057,3.3081,3.3074,3.3082,3.3079,3.31,3.3098,3.3174,3.3183,3.3112,3.3112,3.3113,0,3.3111,3.3125,3.3115,3.3119,3.3116,3.3124,3.3127,3.3108,3.3112,3.3108,3.3118,3.3123,3.3126,3.3139,3.3128,3.3132,3.3123,3.3149,3.3123,3.3127,3.3121,3.312,3.312,3.3154,3.3155,3.3156,3.3156,0,3.3176,3.3168,3.3173,3.3175,3.3178,3.3179,3.3178,3.3183,3.3163,3.3169,3.3175,3.3178,3.3182,3.3187,3.3189,3.3185,3.3167,3.3165,3.317,3.3174,3.3177,3.3174,3.3095,3.3163,3.3162,3.3162,3.3161,3.3161,3.3225,3.3235,3.3229,3.3235,3.3232,3.3232,3.324,3.3231,3.3236,3.3238,3.3227,3.3236,3.3232,3.3231,3.3229,3.3236,3.3223,3.3231,3.3232,3.3234,3.3236,3.3178,3.3236,3.3236,3.3236,3.3235,3.3235,0,3.3287,3.3282,3.3287,3.3286,3.3291,3.3274,3.3272,3.3277,3.3285,3.3282,3.3285,3.3292,3.3297,3.3287,3.329,3.3297,3.3289,3.3298,3.3297,3.3296,3.3248,3.3243,3.3305,3.3305,3.3305,3.3305,3.3305,3.3305,3.332,3.3336,3.3327,3.3341,3.3336,3.3344,3.3344,3.3344,3.3341,3.335,3.3354,3.3347,3.3341,3.3343,3.3347,3.3343,3.3345,3.3357,3.3351,3.3306,3.3299,3.3293,3.3287,3.3358,3.3358,3.3397,3.3398,3.3398]}]]